Satellite: HAWKSAT1
Catalog number: 35003
Epoch time:      09225.45507469
Element set:      74
Inclination:      040.4701 deg
RA of node:       257.4605 deg
Eccentricity:    0.0028077
Arg of perigee:   237.0031 deg
Mean anomaly:     122.8593 deg
Mean motion:   15.40018351 rev/day
Decay rate:      1.415e-05 rev/day^2
Epoch rev:            1318
Checksum:              256

Satellite: CP6
Catalog number: 35004
Epoch time:      09225.24760044
Element set:      67
Inclination:      040.4624 deg
RA of node:       258.4621 deg
Eccentricity:    0.0028642
Arg of perigee:   235.0605 deg
Mean anomaly:     124.7927 deg
Mean motion:   15.40445144 rev/day
Decay rate:      6.371e-05 rev/day^2
Epoch rev:            1314
Checksum:              265

Satellite: AEROCUB3
Catalog number: 35005
Epoch time:      09225.12791088
Element set:      67
Inclination:      040.4767 deg
RA of node:       259.4042 deg
Eccentricity:    0.0027762
Arg of perigee:   233.1763 deg
Mean anomaly:     126.6510 deg
Mean motion:   15.40237341 rev/day
Decay rate:      2.669e-05 rev/day^2
Epoch rev:            1312
Checksum:              275

Satellite: DRAGNSAT
Catalog number: 35690
Epoch time:      09225.49914637
Element set:      15
Inclination:      051.6400 deg
RA of node:       011.8279 deg
Eccentricity:    0.0004396
Arg of perigee:   127.7077 deg
Mean anomaly:     232.4857 deg
Mean motion:   15.80989098 rev/day
Decay rate:     1.9600e-04 rev/day^2
Epoch rev:             221
Checksum:              303

/EX





More information about the Keps mailing list